TimePDT,TemperatureF,Dew PointF,Humidity,Sea Level PressureIn,VisibilityMPH,Wind Direction,Wind SpeedMPH,Gust SpeedMPH,PrecipitationIn,Events,Conditions,WindDirDegrees,DateUTC
12:53 AM,50.0,46.9,89,30.25,10.0,NNE,3.5,-,N/A,,Partly Cloudy,30,2012-10-13 07:53:00
1:53 AM,48.0,46.9,96,30.25,10.0,ENE,3.5,-,N/A,,Partly Cloudy,70,2012-10-13 08:53:00
2:53 AM,48.9,48.0,97,30.27,10.0,Calm,Calm,-,N/A,,Scattered Clouds,0,2012-10-13 09:53:00
3:53 AM,48.9,48.0,97,30.26,10.0,Calm,Calm,-,N/A,,Scattered Clouds,0,2012-10-13 10:53:00
4:53 AM,48.0,46.9,96,30.28,10.0,NE,3.5,-,N/A,,Scattered Clouds,40,2012-10-13 11:53:00
5:53 AM,48.9,46.9,93,30.27,10.0,Calm,Calm,-,N/A,,Partly Cloudy,0,2012-10-13 12:53:00
6:53 AM,46.0,46.0,100,30.28,10.0,Calm,Calm,-,N/A,,Scattered Clouds,0,2012-10-13 13:53:00
7:53 AM,48.9,46.9,93,30.29,10.0,NE,3.5,-,N/A,,Partly Cloudy,40,2012-10-13 14:53:00
8:53 AM,57.9,50.0,75,30.31,10.0,SE,4.6,-,N/A,,Partly Cloudy,140,2012-10-13 15:53:00
9:53 AM,60.1,50.0,69,30.32,10.0,South,4.6,-,N/A,,Partly Cloudy,190,2012-10-13 16:53:00
10:53 AM,62.1,51.1,67,30.32,10.0,SW,4.6,-,N/A,,Partly Cloudy,220,2012-10-13 17:53:00
11:53 AM,63.0,52.0,67,30.30,10.0,WSW,5.8,-,N/A,,Partly Cloudy,250,2012-10-13 18:53:00
12:53 PM,64.0,52.0,65,30.27,10.0,WSW,6.9,-,N/A,,Scattered Clouds,240,2012-10-13 19:53:00
1:53 PM,66.0,51.1,59,30.25,10.0,WSW,6.9,-,N/A,,Partly Cloudy,240,2012-10-13 20:53:00
2:53 PM,70.0,52.0,53,30.22,10.0,SSW,6.9,-,N/A,,Partly Cloudy,210,2012-10-13 21:53:00
3:53 PM,70.0,54.0,57,30.21,10.0,West,11.5,-,N/A,,Scattered Clouds,260,2012-10-13 22:53:00
4:53 PM,69.8,55.4,60,30.19,10.0,West,13.8,-,N/A,,Scattered Clouds,270,2012-10-13 23:53:00
5:53 PM,66.0,55.0,68,30.20,10.0,NW,9.2,-,N/A,,Scattered Clouds,310,2012-10-14 00:53:00
6:53 PM,63.0,55.9,78,30.19,10.0,WNW,9.2,-,N/A,,Partly Cloudy,300,2012-10-14 01:53:00
7:53 PM,62.1,55.9,80,30.20,10.0,WNW,9.2,-,N/A,,Partly Cloudy,290,2012-10-14 02:53:00
8:53 PM,61.0,55.9,83,30.21,10.0,WNW,4.6,-,N/A,,Partly Cloudy,290,2012-10-14 03:53:00
10:53 PM,57.0,55.9,96,30.21,10.0,Calm,Calm,-,N/A,,Partly Cloudy,0,2012-10-14 05:53:00
11:53 PM,55.9,53.1,90,30.21,10.0,Calm,Calm,-,N/A,,Scattered Clouds,0,2012-10-14 06:53:00